Year,Month,Day,Hour,Minute,Value (Times are PST for temperature in C)
2016,04,15,00,00,5.90
2016,04,15,00,01,5.70
2016,04,15,00,02,5.50
2016,04,15,00,03,5.30
2016,04,15,00,04,5.20
2016,04,15,00,05,5.10
2016,04,15,00,06,5.00
2016,04,15,00,07,5.00
2016,04,15,00,08,4.90
2016,04,15,00,09,4.90
2016,04,15,00,10,4.90
2016,04,15,00,11,4.90
2016,04,15,00,12,4.90
2016,04,15,00,13,4.90
2016,04,15,00,14,4.90
2016,04,15,00,15,4.90
2016,04,15,00,16,4.90
2016,04,15,00,17,4.90
2016,04,15,00,18,5.00
2016,04,15,00,19,5.00
2016,04,15,00,20,5.00
2016,04,15,00,21,5.10
2016,04,15,00,22,5.10
2016,04,15,00,23,5.10
2016,04,15,00,24,5.10
2016,04,15,00,25,5.10
2016,04,15,00,26,5.10
2016,04,15,00,27,5.10
2016,04,15,00,28,5.10
2016,04,15,00,29,5.10
2016,04,15,00,30,5.10
2016,04,15,00,31,5.10
2016,04,15,00,32,5.10
2016,04,15,00,33,5.10
2016,04,15,00,34,5.10
2016,04,15,00,35,5.10
2016,04,15,00,36,5.10
2016,04,15,00,37,5.10
2016,04,15,00,38,5.10
2016,04,15,00,39,5.10
2016,04,15,00,40,5.10
2016,04,15,00,41,5.10
2016,04,15,00,42,5.00
2016,04,15,00,43,5.00
2016,04,15,00,44,5.00
2016,04,15,00,45,5.00
2016,04,15,00,46,5.00
2016,04,15,00,47,4.90
2016,04,15,00,48,4.90
2016,04,15,00,49,4.90
2016,04,15,00,50,4.90
2016,04,15,00,51,4.90
2016,04,15,00,52,4.90
2016,04,15,00,53,4.90
2016,04,15,00,54,4.90
2016,04,15,00,55,4.90
2016,04,15,00,56,4.90
2016,04,15,00,57,4.90
2016,04,15,00,58,4.90
2016,04,15,00,59,4.90
2016,04,15,01,00,4.90
2016,04,15,01,01,4.90
2016,04,15,01,02,4.90
2016,04,15,01,03,4.90
2016,04,15,01,04,4.90
2016,04,15,01,05,4.90
2016,04,15,01,06,4.90
2016,04,15,01,07,4.90
2016,04,15,01,08,4.90
2016,04,15,01,09,4.90
2016,04,15,01,10,4.90
2016,04,15,01,11,4.80
2016,04,15,01,12,4.80
2016,04,15,01,13,4.80
2016,04,15,01,14,4.70
2016,04,15,01,15,4.70
2016,04,15,01,16,4.70
2016,04,15,01,17,4.60
2016,04,15,01,18,4.60
2016,04,15,01,19,4.60
2016,04,15,01,20,4.50
2016,04,15,01,21,4.50
2016,04,15,01,22,4.50
2016,04,15,01,23,4.50
2016,04,15,01,24,4.50
2016,04,15,01,25,4.40
2016,04,15,01,26,4.40
2016,04,15,01,27,4.40
2016,04,15,01,28,4.40
2016,04,15,01,29,4.40
2016,04,15,01,30,4.40
2016,04,15,01,31,4.40
2016,04,15,01,32,4.40
2016,04,15,01,33,4.40
2016,04,15,01,34,4.50
2016,04,15,01,35,4.50
2016,04,15,01,36,4.50
2016,04,15,01,37,4.50
2016,04,15,01,38,4.60
2016,04,15,01,39,4.60
2016,04,15,01,40,4.60
2016,04,15,01,41,4.60
2016,04,15,01,42,4.60
2016,04,15,01,43,4.60
2016,04,15,01,44,4.60
2016,04,15,01,45,4.60
2016,04,15,01,46,4.60
2016,04,15,01,47,4.60
2016,04,15,01,48,4.60
2016,04,15,01,49,4.50
2016,04,15,01,50,4.50
2016,04,15,01,51,4.50
2016,04,15,01,52,4.50
2016,04,15,01,53,4.40
2016,04,15,01,54,4.40
2016,04,15,01,55,4.40
2016,04,15,01,56,4.40
2016,04,15,01,57,4.30
2016,04,15,01,58,4.30
2016,04,15,01,59,4.20
2016,04,15,02,00,4.10
2016,04,15,02,01,4.10
2016,04,15,02,02,4.00
2016,04,15,02,03,4.00
2016,04,15,02,04,4.00
2016,04,15,02,05,4.00
2016,04,15,02,06,4.00
2016,04,15,02,07,4.10
2016,04,15,02,08,4.10
2016,04,15,02,09,4.10
2016,04,15,02,10,4.00
2016,04,15,02,11,4.00
2016,04,15,02,12,4.00
2016,04,15,02,13,3.90
2016,04,15,02,14,3.90
2016,04,15,02,15,3.80
2016,04,15,02,16,3.80
2016,04,15,02,17,3.80
2016,04,15,02,18,3.80
2016,04,15,02,19,3.80
2016,04,15,02,20,3.80
2016,04,15,02,21,3.80
2016,04,15,02,22,3.80
2016,04,15,02,23,3.80
2016,04,15,02,24,3.70
2016,04,15,02,25,3.70
2016,04,15,02,26,3.80
2016,04,15,02,27,3.80
2016,04,15,02,28,3.80
2016,04,15,02,29,3.80
2016,04,15,02,30,3.80
2016,04,15,02,31,3.80
2016,04,15,02,32,3.80
2016,04,15,02,33,3.70
2016,04,15,02,34,3.70
2016,04,15,02,35,3.70
2016,04,15,02,36,3.70
2016,04,15,02,37,3.70
2016,04,15,02,38,3.70
2016,04,15,02,39,3.70
2016,04,15,02,40,3.70
2016,04,15,02,41,3.70
2016,04,15,02,42,3.70
2016,04,15,02,43,3.70
2016,04,15,02,44,3.70
2016,04,15,02,45,3.70
2016,04,15,02,46,3.70
2016,04,15,02,47,3.70
2016,04,15,02,48,3.70
2016,04,15,02,49,3.70
2016,04,15,02,50,3.70
2016,04,15,02,51,3.70
2016,04,15,02,52,3.70
2016,04,15,02,53,3.60
2016,04,15,02,54,3.60
2016,04,15,02,55,3.60
2016,04,15,02,56,3.50
2016,04,15,02,57,3.50
2016,04,15,02,58,3.40
2016,04,15,02,59,3.40
2016,04,15,03,00,3.40
2016,04,15,03,01,3.40
2016,04,15,03,02,3.40
2016,04,15,03,03,3.40
2016,04,15,03,04,3.40
2016,04,15,03,05,3.30
2016,04,15,03,06,3.30
2016,04,15,03,07,3.30
2016,04,15,03,08,3.40
2016,04,15,03,09,3.40
2016,04,15,03,10,3.40
2016,04,15,03,11,3.40
2016,04,15,03,12,3.40
2016,04,15,03,13,3.40
2016,04,15,03,14,3.40
2016,04,15,03,15,3.40
2016,04,15,03,16,3.40
2016,04,15,03,17,3.40
2016,04,15,03,18,3.40
2016,04,15,03,19,3.40
2016,04,15,03,20,3.40
2016,04,15,03,21,3.40
2016,04,15,03,22,3.40
2016,04,15,03,23,3.40
2016,04,15,03,24,3.40
2016,04,15,03,25,3.30
2016,04,15,03,26,3.30
2016,04,15,03,27,3.30
2016,04,15,03,28,3.30
2016,04,15,03,29,3.30
2016,04,15,03,30,3.30
2016,04,15,03,31,3.30
2016,04,15,03,32,3.30
2016,04,15,03,33,3.20
2016,04,15,03,34,3.20
2016,04,15,03,35,3.20
2016,04,15,03,36,3.20
2016,04,15,03,37,3.30
2016,04,15,03,38,3.30
2016,04,15,03,39,3.30
2016,04,15,03,40,3.30
2016,04,15,03,41,3.30
2016,04,15,03,42,3.30
2016,04,15,03,43,3.30
2016,04,15,03,44,3.30
2016,04,15,03,45,3.30
2016,04,15,03,46,3.30
2016,04,15,03,47,3.30
2016,04,15,03,48,3.30
2016,04,15,03,49,3.30
2016,04,15,03,50,3.30
2016,04,15,03,51,3.20
2016,04,15,03,52,3.20
2016,04,15,03,53,3.10
2016,04,15,03,54,3.00
2016,04,15,03,55,3.00
2016,04,15,03,56,3.00
2016,04,15,03,57,2.90
2016,04,15,03,58,2.90
2016,04,15,03,59,2.90
2016,04,15,04,00,2.80
2016,04,15,04,01,2.80
2016,04,15,04,02,2.80
2016,04,15,04,03,2.80
2016,04,15,04,04,2.80
2016,04,15,04,05,2.80
2016,04,15,04,06,2.80
2016,04,15,04,07,2.80
2016,04,15,04,08,2.80
2016,04,15,04,09,2.80
2016,04,15,04,10,2.80
2016,04,15,04,11,2.80
2016,04,15,04,12,2.80
2016,04,15,04,13,2.80
2016,04,15,04,14,2.80
2016,04,15,04,15,2.90
2016,04,15,04,16,2.90
2016,04,15,04,17,2.90
2016,04,15,04,18,2.90
2016,04,15,04,19,3.00
2016,04,15,04,20,3.00
2016,04,15,04,21,3.00
2016,04,15,04,22,3.00
2016,04,15,04,23,3.00
2016,04,15,04,24,3.00
2016,04,15,04,25,2.90
2016,04,15,04,26,2.90
2016,04,15,04,27,2.90
2016,04,15,04,28,2.90
2016,04,15,04,29,2.90
2016,04,15,04,30,2.90
2016,04,15,04,31,2.90
2016,04,15,04,32,2.90
2016,04,15,04,33,2.90
2016,04,15,04,34,3.00
2016,04,15,04,35,3.00
2016,04,15,04,36,3.00
2016,04,15,04,37,3.00
2016,04,15,04,38,3.10
2016,04,15,04,39,3.10
2016,04,15,04,40,3.10
2016,04,15,04,41,3.10
2016,04,15,04,42,3.10
2016,04,15,04,43,3.00
2016,04,15,04,44,3.00
2016,04,15,04,45,3.00
2016,04,15,04,46,2.90
2016,04,15,04,47,2.90
2016,04,15,04,48,2.90
2016,04,15,04,49,2.90
2016,04,15,04,50,2.90
2016,04,15,04,51,2.90
2016,04,15,04,52,2.90
2016,04,15,04,53,2.90
2016,04,15,04,54,3.00
2016,04,15,04,55,3.10
2016,04,15,04,56,3.10
2016,04,15,04,57,3.20
2016,04,15,04,58,3.20
2016,04,15,04,59,3.30
2016,04,15,05,00,3.30
2016,04,15,05,01,3.20
2016,04,15,05,02,3.20
2016,04,15,05,03,3.20
2016,04,15,05,04,3.10
2016,04,15,05,05,3.10
2016,04,15,05,06,3.10
2016,04,15,05,07,3.00
2016,04,15,05,08,3.00
2016,04,15,05,09,3.00
2016,04,15,05,10,3.00
2016,04,15,05,11,2.90
2016,04,15,05,12,2.90
2016,04,15,05,13,2.90
2016,04,15,05,14,2.90
2016,04,15,05,15,2.90
2016,04,15,05,16,2.90
2016,04,15,05,17,2.90
2016,04,15,05,18,2.90
2016,04,15,05,19,2.90
2016,04,15,05,20,2.90
2016,04,15,05,21,2.90
2016,04,15,05,22,2.90
2016,04,15,05,23,2.90
2016,04,15,05,24,2.90
2016,04,15,05,25,2.90
2016,04,15,05,26,3.00
2016,04,15,05,27,3.10
2016,04,15,05,28,3.20
2016,04,15,05,29,3.20
2016,04,15,05,30,3.30
2016,04,15,05,31,3.40
2016,04,15,05,32,3.50
2016,04,15,05,33,3.60
2016,04,15,05,34,3.70
2016,04,15,05,35,3.70
2016,04,15,05,36,3.70
2016,04,15,05,37,3.70
2016,04,15,05,38,3.60
2016,04,15,05,39,3.60
2016,04,15,05,40,3.60
2016,04,15,05,41,3.70
2016,04,15,05,42,3.70
2016,04,15,05,43,3.70
2016,04,15,05,44,3.70
2016,04,15,05,45,3.70
2016,04,15,05,46,3.70
2016,04,15,05,47,3.70
2016,04,15,05,48,3.70
2016,04,15,05,49,3.70
2016,04,15,05,50,3.70
2016,04,15,05,51,3.70
2016,04,15,05,52,3.80
2016,04,15,05,53,3.80
2016,04,15,05,54,3.80
2016,04,15,05,55,3.80
2016,04,15,05,56,3.90
2016,04,15,05,57,3.90
2016,04,15,05,58,4.00
2016,04,15,05,59,4.00
2016,04,15,06,00,4.00
2016,04,15,06,01,4.10
2016,04,15,06,02,4.10
2016,04,15,06,03,4.10
2016,04,15,06,04,4.10
2016,04,15,06,05,4.10
2016,04,15,06,06,4.20
2016,04,15,06,07,4.20
2016,04,15,06,08,4.20
2016,04,15,06,09,4.30
2016,04,15,06,10,4.30
2016,04,15,06,11,4.30
2016,04,15,06,12,4.30
2016,04,15,06,13,4.30
2016,04,15,06,14,4.30
2016,04,15,06,15,4.40
2016,04,15,06,16,4.40
2016,04,15,06,17,4.40
2016,04,15,06,18,4.40
2016,04,15,06,19,4.40
2016,04,15,06,20,4.40
2016,04,15,06,21,4.50
2016,04,15,06,22,4.50
2016,04,15,06,23,4.50
2016,04,15,06,24,4.50
2016,04,15,06,25,4.50
2016,04,15,06,26,4.60
2016,04,15,06,27,4.60
2016,04,15,06,28,4.60
2016,04,15,06,29,4.60
2016,04,15,06,30,4.60
2016,04,15,06,31,4.60
2016,04,15,06,32,4.70
2016,04,15,06,33,4.70
2016,04,15,06,34,4.70
2016,04,15,06,35,4.80
2016,04,15,06,36,4.80
2016,04,15,06,37,4.80
2016,04,15,06,38,4.80
2016,04,15,06,39,4.80
2016,04,15,06,40,4.80
2016,04,15,06,41,4.80
2016,04,15,06,42,4.80
2016,04,15,06,43,4.80
2016,04,15,06,44,4.80
2016,04,15,06,45,4.80
2016,04,15,06,46,4.80
2016,04,15,06,47,4.80
2016,04,15,06,48,4.80
2016,04,15,06,49,4.80
2016,04,15,06,50,4.80
2016,04,15,06,51,4.80
2016,04,15,06,52,4.90
2016,04,15,06,53,4.90
2016,04,15,06,54,4.90
2016,04,15,06,55,4.90
2016,04,15,06,56,4.90
2016,04,15,06,57,4.90
2016,04,15,06,58,4.90
2016,04,15,06,59,4.90
2016,04,15,07,00,4.90
2016,04,15,07,01,4.90
2016,04,15,07,02,5.00
2016,04,15,07,03,4.90
2016,04,15,07,04,5.00
2016,04,15,07,05,5.00
2016,04,15,07,06,5.00
2016,04,15,07,07,5.00
2016,04,15,07,08,5.00
2016,04,15,07,09,5.00
2016,04,15,07,10,5.00
2016,04,15,07,11,5.00
2016,04,15,07,12,5.00
2016,04,15,07,13,5.00
2016,04,15,07,14,5.00
2016,04,15,07,15,5.00
2016,04,15,07,16,5.00
2016,04,15,07,17,5.00
2016,04,15,07,18,5.00
2016,04,15,07,19,5.00
2016,04,15,07,20,5.00
2016,04,15,07,21,5.10
2016,04,15,07,22,5.10
2016,04,15,07,23,5.10
2016,04,15,07,24,5.10
2016,04,15,07,25,5.10
2016,04,15,07,26,5.10
2016,04,15,07,27,5.10
2016,04,15,07,28,5.20
2016,04,15,07,29,5.20
2016,04,15,07,30,5.20
2016,04,15,07,31,5.20
2016,04,15,07,32,5.20
2016,04,15,07,33,5.20
2016,04,15,07,34,5.20
2016,04,15,07,35,5.20
2016,04,15,07,36,5.20
2016,04,15,07,37,5.20
2016,04,15,07,38,5.20
2016,04,15,07,39,5.20
2016,04,15,07,40,5.30
2016,04,15,07,41,5.30
2016,04,15,07,42,5.30
2016,04,15,07,43,5.40
2016,04,15,07,44,5.40
2016,04,15,07,45,5.50
2016,04,15,07,46,5.50
2016,04,15,07,47,5.50
2016,04,15,07,48,5.50
2016,04,15,07,49,5.50
2016,04,15,07,50,5.60
2016,04,15,07,51,5.60
2016,04,15,07,52,5.60
2016,04,15,07,53,5.60
2016,04,15,07,54,5.70
2016,04,15,07,55,5.70
2016,04,15,07,56,5.70
2016,04,15,07,57,5.80
2016,04,15,07,58,5.80
2016,04,15,07,59,5.90
2016,04,15,08,00,5.90
2016,04,15,08,01,6.00
2016,04,15,08,02,6.00
2016,04,15,08,03,6.00
2016,04,15,08,04,6.00
2016,04,15,08,05,6.10
2016,04,15,08,06,6.10
2016,04,15,08,07,6.10
2016,04,15,08,08,6.10
2016,04,15,08,09,6.10
2016,04,15,08,10,6.10
2016,04,15,08,11,6.10
2016,04,15,08,12,6.10
2016,04,15,08,13,6.00
2016,04,15,08,14,6.00
2016,04,15,08,15,6.00
2016,04,15,08,16,6.10
2016,04,15,08,17,6.10
2016,04,15,08,18,6.10
2016,04,15,08,19,6.10
2016,04,15,08,20,6.10
2016,04,15,08,21,6.10
2016,04,15,08,22,6.10
2016,04,15,08,23,6.10
2016,04,15,08,24,6.10
2016,04,15,08,25,6.10
2016,04,15,08,26,6.20
2016,04,15,08,27,6.20
2016,04,15,08,28,6.20
2016,04,15,08,29,6.30
2016,04,15,08,30,6.30
2016,04,15,08,31,6.40
2016,04,15,08,32,6.50
2016,04,15,08,33,6.60
2016,04,15,08,34,6.70
2016,04,15,08,35,6.80
2016,04,15,08,36,7.00
2016,04,15,08,37,7.10
2016,04,15,08,38,7.30
2016,04,15,08,39,7.50
2016,04,15,08,40,7.60
2016,04,15,08,41,7.80
2016,04,15,08,42,8.00
2016,04,15,08,43,8.10
2016,04,15,08,44,8.30
2016,04,15,08,45,8.40
2016,04,15,08,46,8.50
2016,04,15,08,47,8.60
2016,04,15,08,48,8.70
2016,04,15,08,49,8.80
2016,04,15,08,50,8.90
2016,04,15,08,51,9.00
2016,04,15,08,52,9.10
2016,04,15,08,53,9.20
2016,04,15,08,54,9.30
2016,04,15,08,55,9.30
2016,04,15,08,56,9.40
2016,04,15,08,57,9.40
2016,04,15,08,58,9.50
2016,04,15,08,59,9.60
2016,04,15,09,00,9.70
2016,04,15,09,01,9.70
2016,04,15,09,02,9.80
2016,04,15,09,03,9.80
2016,04,15,09,04,9.80
2016,04,15,09,05,9.90
2016,04,15,09,06,9.90
2016,04,15,09,07,10.00
2016,04,15,09,08,10.00
2016,04,15,09,09,10.00
2016,04,15,09,10,10.00
2016,04,15,09,11,10.00
2016,04,15,09,12,10.00
2016,04,15,09,13,10.00
2016,04,15,09,14,10.10
2016,04,15,09,15,10.10
2016,04,15,09,16,10.20
2016,04,15,09,17,10.20
2016,04,15,09,18,10.30
2016,04,15,09,19,10.30
2016,04,15,09,20,10.40
2016,04,15,09,21,10.40
2016,04,15,09,22,10.50
2016,04,15,09,23,10.50
2016,04,15,09,24,10.60
2016,04,15,09,25,10.70
2016,04,15,09,26,10.70
2016,04,15,09,27,10.80
2016,04,15,09,28,10.90
2016,04,15,09,29,11.00
2016,04,15,09,30,11.00
2016,04,15,09,31,11.00
2016,04,15,09,32,11.10
2016,04,15,09,33,11.10
2016,04,15,09,34,11.10
2016,04,15,09,35,11.20
2016,04,15,09,36,11.20
2016,04,15,09,37,11.20
2016,04,15,09,38,11.30
2016,04,15,09,39,11.30
2016,04,15,09,40,11.30
2016,04,15,09,41,11.40
2016,04,15,09,42,11.40
2016,04,15,09,43,11.50
2016,04,15,09,44,11.60
2016,04,15,09,45,11.60
2016,04,15,09,46,11.70
2016,04,15,09,47,11.80
2016,04,15,09,48,11.80
2016,04,15,09,49,11.90
2016,04,15,09,50,11.90
2016,04,15,09,51,11.90
2016,04,15,09,52,12.00
2016,04,15,09,53,12.00
2016,04,15,09,54,12.00
2016,04,15,09,55,12.10
2016,04,15,09,56,12.10
2016,04,15,09,57,12.10
2016,04,15,09,58,12.10
2016,04,15,09,59,12.20
2016,04,15,10,00,12.20
2016,04,15,10,01,12.30
2016,04,15,10,02,12.30
2016,04,15,10,03,12.30
2016,04,15,10,04,12.30
2016,04,15,10,05,12.30
2016,04,15,10,06,12.30
2016,04,15,10,07,12.30
2016,04,15,10,08,12.30
2016,04,15,10,09,12.30
2016,04,15,10,10,12.40
2016,04,15,10,11,12.40
2016,04,15,10,12,12.50
2016,04,15,10,13,12.60
2016,04,15,10,14,12.60
2016,04,15,10,15,12.70
2016,04,15,10,16,12.70
2016,04,15,10,17,12.70
2016,04,15,10,18,12.80
2016,04,15,10,19,12.80
2016,04,15,10,20,12.80
2016,04,15,10,21,12.80
2016,04,15,10,22,12.80
2016,04,15,10,23,12.80
2016,04,15,10,24,12.80
2016,04,15,10,25,12.90
2016,04,15,10,26,12.90
2016,04,15,10,27,12.90
2016,04,15,10,28,12.90
2016,04,15,10,29,12.90
2016,04,15,10,30,12.90
2016,04,15,10,31,13.00
2016,04,15,10,32,13.00
2016,04,15,10,33,13.10
2016,04,15,10,34,13.10
2016,04,15,10,35,13.10
2016,04,15,10,36,13.00
2016,04,15,10,37,13.00
2016,04,15,10,38,12.90
2016,04,15,10,39,12.90
2016,04,15,10,40,12.90
2016,04,15,10,41,12.90
2016,04,15,10,42,12.90
2016,04,15,10,43,13.00
2016,04,15,10,44,13.10
2016,04,15,10,45,13.20
2016,04,15,10,46,13.20
2016,04,15,10,47,13.30
2016,04,15,10,48,13.30
2016,04,15,10,49,13.30
2016,04,15,10,50,13.30
2016,04,15,10,51,13.30
2016,04,15,10,52,13.40
2016,04,15,10,53,13.40
2016,04,15,10,54,13.30
2016,04,15,10,55,13.30
2016,04,15,10,56,13.30
2016,04,15,10,57,13.30
2016,04,15,10,58,13.30
2016,04,15,10,59,13.30
2016,04,15,11,00,13.30
2016,04,15,11,01,13.30
2016,04,15,11,02,13.20
2016,04,15,11,03,13.20
2016,04,15,11,04,13.20
2016,04,15,11,05,13.20
2016,04,15,11,06,13.20
2016,04,15,11,07,13.20
2016,04,15,11,08,13.20
2016,04,15,11,09,13.20
2016,04,15,11,10,13.20
2016,04,15,11,11,13.30
2016,04,15,11,12,13.30
2016,04,15,11,13,13.30
2016,04,15,11,14,13.30
2016,04,15,11,15,13.30
2016,04,15,11,16,13.30
2016,04,15,11,17,13.30
2016,04,15,11,18,13.30
2016,04,15,11,19,13.30
2016,04,15,11,20,13.30
2016,04,15,11,21,13.20
2016,04,15,11,22,13.20
2016,04,15,11,23,13.20
2016,04,15,11,24,13.30
2016,04,15,11,25,13.30
2016,04,15,11,26,13.40
2016,04,15,11,27,13.40
2016,04,15,11,28,13.40
2016,04,15,11,29,13.30
2016,04,15,11,30,13.40
2016,04,15,11,31,13.40
2016,04,15,11,32,13.40
2016,04,15,11,33,13.40
2016,04,15,11,34,13.40
2016,04,15,11,35,13.40
2016,04,15,11,36,13.40
2016,04,15,11,37,13.50
2016,04,15,11,38,13.50
2016,04,15,11,39,13.40
2016,04,15,11,40,13.40
2016,04,15,11,41,13.40
2016,04,15,11,42,13.40
2016,04,15,11,43,13.40
2016,04,15,11,44,13.30
2016,04,15,11,45,13.30
2016,04,15,11,46,13.30
2016,04,15,11,47,13.30
2016,04,15,11,48,13.30
2016,04,15,11,49,13.30
2016,04,15,11,50,13.30
2016,04,15,11,51,13.30
2016,04,15,11,52,13.30
2016,04,15,11,53,13.30
2016,04,15,11,54,13.30
2016,04,15,11,55,13.30
2016,04,15,11,56,13.30
2016,04,15,11,57,13.30
2016,04,15,11,58,13.30
2016,04,15,11,59,13.30
2016,04,15,12,00,13.40
2016,04,15,12,01,13.30
2016,04,15,12,02,13.30
2016,04,15,12,03,13.30
2016,04,15,12,04,13.40
2016,04,15,12,05,13.40
2016,04,15,12,06,13.40
2016,04,15,12,07,13.30
2016,04,15,12,08,13.30
2016,04,15,12,09,13.40
2016,04,15,12,10,13.40
2016,04,15,12,11,13.50
2016,04,15,12,12,13.60
2016,04,15,12,13,13.60
2016,04,15,12,14,13.60
2016,04,15,12,15,13.60
2016,04,15,12,16,13.60
2016,04,15,12,17,13.50
2016,04,15,12,18,13.50
2016,04,15,12,19,13.50
2016,04,15,12,20,13.50
2016,04,15,12,21,13.60
2016,04,15,12,22,13.60
2016,04,15,12,23,13.60
2016,04,15,12,24,13.60
2016,04,15,12,25,13.70
2016,04,15,12,26,13.70
2016,04,15,12,27,13.70
2016,04,15,12,28,13.70
2016,04,15,12,29,13.70
2016,04,15,12,30,13.80
2016,04,15,12,31,13.80
2016,04,15,12,32,14.00
2016,04,15,12,33,14.10
2016,04,15,12,34,14.20
2016,04,15,12,35,14.30
2016,04,15,12,36,14.30
2016,04,15,12,37,14.30
2016,04,15,12,38,14.30
2016,04,15,12,39,14.40
2016,04,15,12,40,14.40
2016,04,15,12,41,14.40
2016,04,15,12,42,14.40
2016,04,15,12,43,14.30
2016,04,15,12,44,14.10
2016,04,15,12,45,14.00
2016,04,15,12,46,14.00
2016,04,15,12,47,13.90
2016,04,15,12,48,13.90
2016,04,15,12,49,13.90
2016,04,15,12,50,13.90
2016,04,15,12,51,14.00
2016,04,15,12,52,14.10
2016,04,15,12,53,14.10
2016,04,15,12,54,14.00
2016,04,15,12,55,14.00
2016,04,15,12,56,14.00
2016,04,15,12,57,13.90
2016,04,15,12,58,13.90
2016,04,15,12,59,13.80
2016,04,15,13,00,13.80
2016,04,15,13,01,13.70
2016,04,15,13,02,13.80
2016,04,15,13,03,13.80
2016,04,15,13,04,13.80
2016,04,15,13,05,13.80
2016,04,15,13,06,13.70
2016,04,15,13,07,13.70
2016,04,15,13,08,13.60
2016,04,15,13,09,13.60
2016,04,15,13,10,13.60
2016,04,15,13,11,13.60
2016,04,15,13,12,13.70
2016,04,15,13,13,13.70
2016,04,15,13,14,13.70
2016,04,15,13,15,13.70
2016,04,15,13,16,13.70
2016,04,15,13,17,13.60
2016,04,15,13,18,13.70
2016,04,15,13,19,13.60
2016,04,15,13,20,13.60
2016,04,15,13,21,13.60
2016,04,15,13,22,13.50
2016,04,15,13,23,13.50
2016,04,15,13,24,13.50
2016,04,15,13,25,13.50
2016,04,15,13,26,13.40
2016,04,15,13,27,13.40
2016,04,15,13,28,13.40
2016,04,15,13,29,13.40
2016,04,15,13,30,13.50
2016,04,15,13,31,13.50
2016,04,15,13,32,13.50
2016,04,15,13,33,13.50
2016,04,15,13,34,13.50
2016,04,15,13,35,13.50
2016,04,15,13,36,13.50
2016,04,15,13,37,13.50
2016,04,15,13,38,13.60
2016,04,15,13,39,13.50
2016,04,15,13,40,13.50
2016,04,15,13,41,13.50
2016,04,15,13,42,13.50
2016,04,15,13,43,13.60
2016,04,15,13,44,13.60
2016,04,15,13,45,13.60
2016,04,15,13,46,13.60
2016,04,15,13,47,13.60
2016,04,15,13,48,13.60
2016,04,15,13,49,13.60
2016,04,15,13,50,13.60
2016,04,15,13,51,13.60
2016,04,15,13,52,13.60
2016,04,15,13,53,13.70
2016,04,15,13,54,13.70
2016,04,15,13,55,13.70
2016,04,15,13,56,13.80
2016,04,15,13,57,13.80
2016,04,15,13,58,13.80
2016,04,15,13,59,13.80
2016,04,15,14,00,13.80
2016,04,15,14,01,13.80
2016,04,15,14,02,13.80
2016,04,15,14,03,13.80
2016,04,15,14,04,13.70
2016,04,15,14,05,13.70
2016,04,15,14,06,13.70
2016,04,15,14,07,13.70
2016,04,15,14,08,13.70
2016,04,15,14,09,13.70
2016,04,15,14,10,13.70
2016,04,15,14,11,13.60
2016,04,15,14,12,13.60
2016,04,15,14,13,13.60
2016,04,15,14,14,13.70
2016,04,15,14,15,13.70
2016,04,15,14,16,13.60
2016,04,15,14,17,13.60
2016,04,15,14,18,13.60
2016,04,15,14,19,13.50
2016,04,15,14,20,13.50
2016,04,15,14,21,13.40
2016,04,15,14,22,13.50
2016,04,15,14,23,13.50
2016,04,15,14,24,13.50
2016,04,15,14,25,13.40
2016,04,15,14,26,13.40
2016,04,15,14,27,13.50
2016,04,15,14,28,13.50
2016,04,15,14,29,13.50
2016,04,15,14,30,13.60
2016,04,15,14,31,13.70
2016,04,15,14,32,13.80
2016,04,15,14,33,13.90
2016,04,15,14,34,13.90
2016,04,15,14,35,13.90
2016,04,15,14,36,13.90
2016,04,15,14,37,13.90
2016,04,15,14,38,13.90
2016,04,15,14,39,14.00
2016,04,15,14,40,14.00
2016,04,15,14,41,14.00
2016,04,15,14,42,14.00
2016,04,15,14,43,14.00
2016,04,15,14,44,14.00
2016,04,15,14,45,14.00
2016,04,15,14,46,14.00
2016,04,15,14,47,14.00
2016,04,15,14,48,14.10
2016,04,15,14,49,14.10
2016,04,15,14,50,14.20
2016,04,15,14,51,14.20
2016,04,15,14,52,14.30
2016,04,15,14,53,14.30
2016,04,15,14,54,14.20
2016,04,15,14,55,14.20
2016,04,15,14,56,14.10
2016,04,15,14,57,14.10
2016,04,15,14,58,14.00
2016,04,15,14,59,14.00
2016,04,15,15,00,13.90
2016,04,15,15,01,13.90
2016,04,15,15,02,13.90
2016,04,15,15,03,13.90
2016,04,15,15,04,13.90
2016,04,15,15,05,13.90
2016,04,15,15,06,13.90
2016,04,15,15,07,14.00
2016,04,15,15,08,14.10
2016,04,15,15,09,14.10
2016,04,15,15,10,14.20
2016,04,15,15,11,14.20
2016,04,15,15,12,14.20
2016,04,15,15,13,14.20
2016,04,15,15,14,14.20
2016,04,15,15,15,14.10
2016,04,15,15,16,14.10
2016,04,15,15,17,14.10
2016,04,15,15,18,14.10
2016,04,15,15,19,14.10
2016,04,15,15,20,14.10
2016,04,15,15,21,14.00
2016,04,15,15,22,14.00
2016,04,15,15,23,14.00
2016,04,15,15,24,14.10
2016,04,15,15,25,14.10
2016,04,15,15,26,14.10
2016,04,15,15,27,14.00
2016,04,15,15,28,13.90
2016,04,15,15,29,13.80
2016,04,15,15,30,13.80
2016,04,15,15,31,13.70
2016,04,15,15,32,13.70
2016,04,15,15,33,13.70
2016,04,15,15,34,13.80
2016,04,15,15,35,13.80
2016,04,15,15,36,13.80
2016,04,15,15,37,13.80
2016,04,15,15,38,13.80
2016,04,15,15,39,13.90
2016,04,15,15,40,13.90
2016,04,15,15,41,14.00
2016,04,15,15,42,14.00
2016,04,15,15,43,14.00
2016,04,15,15,44,14.10
2016,04,15,15,45,14.10
2016,04,15,15,46,14.20
2016,04,15,15,47,14.20
2016,04,15,15,48,14.20
2016,04,15,15,49,14.30
2016,04,15,15,50,14.30
2016,04,15,15,51,14.30
2016,04,15,15,52,14.30
2016,04,15,15,53,14.30
2016,04,15,15,54,14.30
2016,04,15,15,55,14.30
2016,04,15,15,56,14.30
2016,04,15,15,57,14.30
2016,04,15,15,58,14.20
2016,04,15,15,59,14.20
2016,04,15,16,00,14.10
2016,04,15,16,01,14.10
2016,04,15,16,02,14.00
2016,04,15,16,03,14.00
2016,04,15,16,04,14.10
2016,04,15,16,05,14.10
2016,04,15,16,06,14.10
2016,04,15,16,07,14.10
2016,04,15,16,08,14.00
2016,04,15,16,09,14.00
2016,04,15,16,10,13.90
2016,04,15,16,11,13.90
2016,04,15,16,12,13.80
2016,04,15,16,13,13.80
2016,04,15,16,14,13.80
2016,04,15,16,15,13.70
2016,04,15,16,16,13.70
2016,04,15,16,17,13.70
2016,04,15,16,18,13.70
2016,04,15,16,19,13.70
2016,04,15,16,20,13.70
2016,04,15,16,21,13.60
2016,04,15,16,22,13.70
2016,04,15,16,23,13.70
2016,04,15,16,24,13.70
2016,04,15,16,25,13.70
2016,04,15,16,26,13.70
2016,04,15,16,27,13.70
2016,04,15,16,28,13.70
2016,04,15,16,29,13.60
2016,04,15,16,30,13.60
2016,04,15,16,31,13.50
2016,04,15,16,32,13.50
2016,04,15,16,33,13.50
2016,04,15,16,34,13.40
2016,04,15,16,35,13.40
2016,04,15,16,36,13.40
2016,04,15,16,37,13.40
2016,04,15,16,38,13.40
2016,04,15,16,39,13.30
2016,04,15,16,40,13.30
2016,04,15,16,41,13.20
2016,04,15,16,42,13.20
2016,04,15,16,43,13.20
2016,04,15,16,44,13.20
2016,04,15,16,45,13.10
2016,04,15,16,46,13.10
2016,04,15,16,47,13.10
2016,04,15,16,48,13.10
2016,04,15,16,49,13.10
2016,04,15,16,50,13.10
2016,04,15,16,51,13.10
2016,04,15,16,52,13.10
2016,04,15,16,53,13.10
2016,04,15,16,54,13.10
2016,04,15,16,55,13.10
2016,04,15,16,56,13.10
2016,04,15,16,57,13.10
2016,04,15,16,58,13.10
2016,04,15,16,59,13.10
2016,04,15,17,00,13.10
2016,04,15,17,01,13.10
2016,04,15,17,02,13.10
2016,04,15,17,03,13.20
2016,04,15,17,04,13.20
2016,04,15,17,05,13.20
2016,04,15,17,06,13.20
2016,04,15,17,07,13.20
2016,04,15,17,08,13.20
2016,04,15,17,09,13.20
2016,04,15,17,10,13.20
2016,04,15,17,11,13.20
2016,04,15,17,12,13.20
2016,04,15,17,13,13.10
2016,04,15,17,14,13.10
2016,04,15,17,15,13.10
2016,04,15,17,16,13.10
2016,04,15,17,17,13.10
2016,04,15,17,18,13.10
2016,04,15,17,19,13.10
2016,04,15,17,20,13.10
2016,04,15,17,21,13.10
2016,04,15,17,22,13.10
2016,04,15,17,23,13.00
2016,04,15,17,24,13.00
2016,04,15,17,25,13.00
2016,04,15,17,26,13.10
2016,04,15,17,27,13.00
2016,04,15,17,28,13.00
2016,04,15,17,29,13.00
2016,04,15,17,30,12.90
2016,04,15,17,31,12.90
2016,04,15,17,32,12.90
2016,04,15,17,33,12.90
2016,04,15,17,34,12.90
2016,04,15,17,35,12.90
2016,04,15,17,36,12.90
2016,04,15,17,37,12.90
2016,04,15,17,38,12.90
2016,04,15,17,39,12.90
2016,04,15,17,40,12.90
2016,04,15,17,41,12.90
2016,04,15,17,42,12.90
2016,04,15,17,43,12.90